Location: Medoc Mountain State Park
(36.2578°N, 77.8786°W)
Time: 06:50:46
(UTC-04:00)

Daily predictions for brighter satellites

Satellite Brightness Start Highest point End
(mag) Time Altitude Azimuth Time Altitude Azimuth Time Altitude Azimuth
S3M 4.0 20:52:15 10° N 20:58:22 68° E 21:04:27 10° SSE
Cosmos 1538 Rocket 4.1 20:54:24 10° NNW 20:59:47 89° ENE 21:05:10 10° SSE
Cosmos 405 4.3 20:57:00 10° NNE 21:00:03 25° ENE 21:03:05 10° SE
Cosmos 2228 Rocket 3.2 20:57:53 10° N 21:02:24 85° W 21:06:55 10° S
CZ-4 DEB 2.7 21:02:30 10° SSE 21:05:41 82° ENE 21:08:54 10° N
SPOT 5 4.2 21:03:28 10° ESE 21:07:00 22° ENE 21:10:41 10° NNE
Delta 2 Rocket 2.9 21:03:11 10° W 21:07:01 77° S 21:10:30 10° E
Cosmos 1908 3.9 21:04:58 10° N 21:08:37 38° E 21:12:17 10° SSE
Cosmos 1674 3.0 21:06:33 10° SSE 21:10:13 46° E 21:13:56 10° NNE
Cosmos 2151 3.7 21:08:26 10° SSE 21:12:13 34° E 21:16:02 10° NNE
Cosmos 773 Rocket 4.1 21:08:11 10° NNW 21:13:23 67° ENE 21:18:34 10° SSE
Resurs 01 Rocket 4.4 21:11:00 10° SW 21:13:43 16° W 21:16:27 10° NW
NOSS 3-1 (A) 4.0 21:09:48 10° S 21:14:50 32° ESE 21:20:14 10° NE
deb Chang Zheng 4 3.7 21:12:48 10° NNE 21:17:04 55° E 21:21:19 10° S
Cosmos 2058 4.0 21:18:54 10° SE 21:22:17 26° E 21:25:42 10° NNE
Cosmos 1515 Rocket 3.7 21:19:55 10° N 21:24:21 81° W 21:28:44 10° S
DELTA 2 R/B(2) 4.1 21:25:15 10° W 21:26:47 40° N 21:28:39 10° ENE
Cosmos 1300 4.4 21:24:06 10° NNE 21:26:48 18° ENE 21:28:45 13° ESE
Meteor 2-20 Rocket 4.4 21:25:16 10° S 21:31:24 76° E 21:37:32 10° N
Cosmos 2333 Rocket 4.3 21:30:28 10° NNE 21:33:21 14° NE 21:36:14 10° E
Cosmos 1633 Rocket 4.5 21:31:20 14° SE 21:33:33 20° E 21:36:46 10° NE
Cosmos 1437 2.7 21:32:06 10° S 21:35:21 72° E 21:38:37 10° NNE
Hubble Space Telescope 2.6 21:34:23 10° SSW 21:36:33 14° SSE 21:36:49 14° SSE
Cosmos 1151 Rocket 3.0 21:32:47 10° N 21:37:07 79° E 21:41:22 10° S
ATLAS 2AS CENTAUR R/B 4.0 21:32:33 11° SSE 21:37:17 21° ESE 21:42:42 10° ENE
Cosmos 2297 Rocket 4.0 21:42:04 12° E 21:42:24 12° E 21:44:17 10° ENE
ARGOS 4.4 21:40:45 15° ESE 21:44:05 27° ENE 21:48:30 10° NNE
ERS-1 Rocket 3.4 21:40:22 10° S 21:45:20 63° WSW 21:50:20 10° NNW
COSMOS 2428 3.3 21:40:24 10° N 21:45:48 43° ENE 21:49:37 18° SE
Cosmos 1437 Rocket 3.6 21:42:22 10° NNW 21:46:03 48° W 21:49:47 10° S
Envisat 3.0 21:42:22 12° SSE 21:47:00 79° ENE 21:52:05 10° N
Cosmos 2266 Rocket 4.2 21:41:40 10° S 21:47:57 75° W 21:54:11 10° N
Cosmos 1939 Rocket 2.9 21:44:35 12° S 21:48:13 78° WSW 21:52:08 10° NNW
Cosmos 1805 Rocket 3.7 21:45:34 12° S 21:49:35 55° E 21:53:56 10° NNE
Cosmos 2219 Rocket 3.6 21:45:20 10° N 21:49:44 23° ENE 21:53:00 14° E
Terra 4.0 21:48:35 10° ENE 21:49:50 11° ENE 21:51:04 10° NE
ERBS 3.4 21:49:50 24° SE 21:50:08 25° ESE 21:53:03 10° ENE
Cosmos 2315 Rocket 3.9 21:54:13 10° N 22:00:25 75° E 22:05:19 17° SSE
NOSS 3-1 (C) 3.4 21:54:52 10° SSW 22:00:39 84° WNW 22:07:03 10° NNE
Cosmos 1726 2.8 21:59:03 10° N 22:02:36 37° E 22:03:46 29° ESE
SL-23 DEB 4.0 21:58:30 10° NW 22:03:22 66° NE 22:05:00 29° ESE
CZ-4 SHROUD 3.1 22:02:06 31° SSE 22:03:27 84° E 22:06:36 10° N
CZ-3A R/B 4.1 21:32:19 10° WSW 22:04:10 42° SSW 22:07:48 23° SE
OTV 4 0.9 22:01:32 10° SW 22:04:07 38° S 22:04:07 38° S
OAO 2 Rocket 3.4 21:59:25 10° WSW 22:04:40 61° SSE 22:09:07 14° E
Cosmos 2112 Rocket 4.1 21:59:37 10° NNW 22:04:52 80° WSW 22:08:34 20° S
Cosmos 1937 Rocket 3.8 22:02:33 18° SSE 22:06:06 45° ESE 22:11:03 10° NNE
Cosmos 220 Rocket 4.5 22:04:30 26° SSE 22:06:21 40° ESE 22:10:30 10° NNE
H-2A R/B 3.0 22:02:12 11° S 22:06:25 47° W 22:10:48 10° NNW
Cosmos 2237 4.2 22:01:42 10° NNW 22:07:26 71° ENE 22:10:48 25° SSE
Cosmos 1707 Rocket 3.5 22:06:49 10° N 22:11:09 68° E 22:13:15 30° SSE
Cosmos 1666 Rocket 3.5 22:09:25 21° S 22:12:17 74° E 22:16:43 10° N
Cosmos 2298 Rocket 4.0 22:07:13 10° SSW 22:12:32 90° ESE 22:17:53 10° NNE
Cosmos 1244 Rocket 4.5 22:06:49 10° S 22:13:09 83° E 22:19:26 10° N
Cosmos 2219 4.0 22:08:58 10° SW 22:14:34 54° WNW 22:20:13 10° NNE
Cosmos 990 Rocket 4.5 22:13:36 29° SE 22:15:24 38° ESE 22:20:07 10° NE
Tiangong 1 2.3 22:12:45 10° W 22:15:42 41° NNW 22:18:39 10° NE
CZ-4 R/B 3.9 22:15:00 10° NNE 22:19:50 57° E 22:22:06 29° SSE
Meteor 1-4 Rocket 3.1 22:17:05 10° N 22:20:39 42° ENE 22:21:09 39° ESE
CZ-4C R/B 4.3 22:21:28 25° ENE 22:21:37 25° ENE 22:24:32 10° NNE
Cosmos 2237 Rocket 3.4 22:18:00 10° N 22:22:55 29° ENE 22:25:15 22° E
Cosmos 2333 4.2 22:19:09 10° NNW 22:24:53 73° ENE 22:27:36 33° SE
Cosmos 2082 4.1 22:23:04 29° SSE 22:25:22 44° ESE 22:30:46 10° NE
Cosmos 1470 Rocket 4.1 22:25:29 36° ESE 22:26:00 37° E 22:30:00 10° NNE
DELTA 2 R/B (1) 3.9 22:21:16 10° WNW 22:26:38 51° SSW 22:28:40 34° SSE
Cosmos 1933 Rocket 4.2 22:26:29 36° ESE 22:27:07 38° E 22:31:15 10° NNE
MetOp-B 4.3 22:23:59 23° S 22:27:20 71° WSW 22:32:42 10° NNW
SL-08 R/B 4.5 22:23:34 24° SSE 22:27:22 66° E 22:33:35 10° NNE
Cosmos 1271 Rocket 3.0 22:24:14 10° N 22:28:00 50° E 22:28:32 46° ESE
Cosmos 1745 Rocket 4.0 22:27:24 28° SSE 22:30:37 59° E 22:36:41 10° NNE
CZ-4B R/B 3.7 22:26:38 10° N 22:31:54 76° WNW 22:36:12 15° SSW
Cosmos 1703 3.1 22:32:27 53° SSE 22:33:13 69° E 22:37:06 10° NNE
Cosmos 2360 Rocket 3.5 22:28:25 10° NW 22:33:24 33° WSW 22:37:25 15° SSW
Iridium 2 3.8 22:33:22 52° ESE 22:33:38 53° E 22:37:24 10° NNE
SL-14 R/B 3.8 22:31:35 23° SSW 22:33:54 57° W 22:37:52 10° N
NOSS 0 Rocket 4.3 22:28:54 10° NNW 22:34:53 50° ENE 22:37:22 32° ESE
NOAA 11 4.1 22:32:40 35° SSE 22:35:02 75° ENE 22:40:30 10° N
H-2A R/B 2.7 22:36:57 33° ESE 22:38:34 42° ENE 22:43:40 10° N
Meteor 1-27 4.5 22:34:35 10° NNW 22:40:12 65° W 22:43:17 27° S
Cosmos 1626 3.0 22:41:26 36° ENE 22:41:26 36° ENE 22:44:23 10° NNE
SPOT 5 4.2 22:41:59 17° SSW 22:44:50 32° W 22:49:06 10° NNW
Delta 2 Rocket 3.4 22:45:55 10° W 22:48:40 48° WSW 22:48:40 48° WSW
Cosmos 1898 Rocket 4.5 22:45:48 10° SW 22:50:44 45° WNW 22:55:44 10° N
SPOT 1/Viking Rocket 3.9 22:48:49 33° SSW 22:51:01 59° WSW 22:56:08 10° NNW
YAOGAN 6 3.9 22:50:10 28° SW 22:51:06 33° W 22:54:24 10° NNW
Cosmos 1386 Rocket 4.4 22:51:00 41° SSE 22:53:01 65° E 22:58:58 10° NNE
Cosmos 1125 Rocket 4.1 22:56:55 38° E 22:56:55 38° E 23:01:37 10° NE
Lacrosse 4 Rocket 3.5 22:54:48 10° NNE 22:57:47 17° NE 22:58:32 17° ENE
Cosmos 2227 Rocket 2.1 22:55:43 29° SSW 22:58:47 89° WNW 23:04:29 10° NNE
Cosmos 292 Rocket 4.1 23:03:11 10° NNW 23:07:51 57° WSW 23:08:39 49° SW
CARTOSAT-1 3.4 23:08:07 75° E 23:08:11 75° ENE 23:12:29 10° N
Cosmos 2242 Rocket 4.4 23:03:58 10° NNW 23:08:15 45° W 23:09:21 37° SW
Cosmos 1862 Rocket 3.4 23:05:45 10° N 23:10:02 79° ENE 23:10:02 79° ENE
Landsat 7 3.8 23:10:20 61° SSW 23:11:02 73° WSW 23:15:48 10° NNW
Spot 2 4.3 23:06:32 10° NNE 23:11:35 69° ESE 23:11:50 67° ESE
COSMOS 2455 3.8 23:06:52 10° N 23:12:25 37° NE 23:14:03 31° E
SAR-Lupe-2 4.4 23:15:11 46° NNE 23:15:11 46° NNE 23:17:52 10° N
SL-16 R/B 3.1 23:11:59 10° N 23:17:11 35° ENE 23:18:12 33° E
Cosmos 2333 Rocket 2.1 23:12:34 10° NNW 23:18:21 84° WSW 23:19:24 61° S
FALCON 9 R/B 3.6 22:58:50 10° W 23:23:40 82° S 23:27:16 34° ESE
ARGOS 4.3 23:22:17 28° SW 23:24:07 35° W 23:29:02 10° NNW
Cosmos 1455 2.9 23:21:18 10° NNW 23:24:28 53° NW 23:24:28 53° NW
Cosmos 2297 Rocket 2.2 23:23:49 44° SW 23:25:38 77° WNW 23:31:19 10° NNE
BREEZE-M DEB (TANK) 4.3 23:23:51 10° NNW 23:25:18 25° NNE 23:25:18 25° NNE
Terra 1.8 23:26:42 71° SW 23:26:54 72° WSW 23:31:40 10° NNW
ATLAS 2AS CENTAUR R/B 3.1 23:19:58 10° SW 23:27:22 75° WNW 23:35:25 10° NNE
COSMOS 2428 4.4 23:25:23 10° NW 23:29:43 23° W 23:31:38 19° SW
DMSP B5D2-2 4.4 23:27:41 10° N 23:32:50 62° WNW 23:34:06 47° SW
Cosmos 2219 Rocket 2.8 23:28:34 10° NW 23:33:52 45° WSW 23:34:43 41° SW
Spot 4 3.8 23:34:28 79° WSW 23:34:29 79° WSW 23:39:22 10° NNW
Cosmos 1869 Rocket 4.4 23:36:29 43° NE 23:36:29 43° NE 23:39:48 10° NNE
IGS 5A 4.0 23:36:25 53° WNW 23:36:25 53° WNW 23:40:02 10° NNW
Cosmos 468 4.4 23:38:07 10° NNW 23:43:29 88° WSW 23:43:31 88° SW
ATLAS 3B R/B 2.8 23:37:00 10° NNW 23:43:53 62° NE 23:45:16 51° ESE
OAO 2 Rocket 3.9 23:44:06 10° W 23:48:05 51° WSW 23:48:05 51° WSW
Tiangong 1 4.1 23:50:12 10° NW 23:51:01 15° NW 23:51:01 15° NW
Cosmos 1980 4.4 23:49:27 10° NW 23:54:44 42° WSW 23:55:01 41° WSW
